Location: Cerda�ola
(41.4919°N, 2.1403°E)
Time: 18:39:59
(UTC+00:00)

Lacrosse 4 Rocket - Pass Details

Date: 11 August 2020
Orbit: 544 x 615 km, 68.0° (Epoch: 30 September)

Event Time Altitude Azimuth Distance (km) Brightness Sun altitude
Exits shadow 00:29:49 13° 321° (NW) 1,695 4.2 -32.8°
Drops below altitude 10° 00:31:22 10° 343° (NNW) 1,876 4.7 -32.8°
Sets 00:34:42 0° 12° (NNE) 2,761 6.0 -32.6°
